Regional Weather Roundup
Issued by NWS

Home | Current Version | Previous Version | Graphics & Text | Print | Product List | Glossary On
Versions: 1 2 3 4 5 6 7 8 9 10 11 12 13 14 15 16 17 18 19 20 21 22 23 24 25 26 27 28 29 30 31 32 33 34 35 36 37 38 39 40 41 42 43 44 45 46 47 48 49 50
000
ASUS45 KBOI 050210
RWRID

IDAHO REGIONAL WEATHER ROUNDUP
NATIONAL WEATHER SERVICE BOISE ID
800 PM MDT FRI SEP 04 2015

NOTE: "FAIR" INDICATES FEW OR NO CLOUDS BELOW 12000 FEET
WITH NO SIGNIFICANT WEATHER AND/OR OBSTRUCTIONS TO VISIBILITY

IDZ012-014-050300-
SOUTHWEST IDAHO


CITY           SKY/WX    TMP DP  RH WIND       PRES   REMARKS
BOISE          MOCLDY    57  42  57 W21G35    29.82R
CALDWELL       MOCLDY    55  36  47 W23G31    29.82R
MOUNTAIN HOME  MOCLDY    63  40  42 NW33G41   29.74R
$$

IDZ016-017-050300-
SOUTHCENTRAL IDAHO


CITY           SKY/WX    TMP DP  RH WIND       PRES   REMARKS
BURLEY         PTCLDY    63  48  58 S3        29.67S
JEROME         MOCLDY    64  45  49 N7        29.68S
TWIN FALLS     MOCLDY    69  41  36 SW8       29.70R
$$

IDZ019>023-050300-
SOUTHEAST IDAHO


CITY           SKY/WX    TMP DP  RH WIND       PRES   REMARKS
IDAHO FALLS    MOCLDY    70  44  39 N7        29.73F
POCATELLO      TSTM      72  40  31 S16G41    29.73R
REXBURG        MOCLDY    70  41  34 E3        29.74F
$$

IDZ006-010-011-018-031-032-050300-
CENTRAL IDAHO MOUNTAINS


CITY           SKY/WX    TMP DP  RH WIND       PRES   REMARKS
MCCALL         LGT RAIN  52  39  61 W16G28    29.80R
HAILEY         MOCLDY    63  39  42 W6        29.78F
STANLEY          N/A     55  38  52 S5        29.82F
SALMON         PTCLDY    50  45  81 N6        29.85S
CHALLIS        LGT RAIN  52  46  80 CALM      29.83S
$$

IDZ002-004-006-007-026-050300-
NORTHERN IDAHO


CITY           SKY/WX    TMP DP  RH WIND       PRES   REMARKS
LEWISTON       CLOUDY    69  31  24 NW5       29.75F
LOWELL           N/A     57  56  96 CALM      29.82R
COEUR D`ALENE  PTCLDY    64  36  34 N16       29.83S
MULLAN PASS    MOCLDY    47  34  60 SE5       29.92F
$$


USA.gov is the U.S. government's official web portal to all federal, state and local government web resources and services.